This is the latest recevied weather packets stored in our database for station/object LX0APE-4. If no packets are shown the sender has not sent any weather packets the latest 10 day(s).
| Time | Temp. | Humidity | Pressure | Rain* | Wind** | Luminosity | Snow |
|---|---|---|---|---|---|---|---|
| 1777642621 | 33.89° C | 13% | 5019.9 hPa | 0 mm | - | - | - |
| 1777642321 | 33.89° C | 13% | 5019.9 hPa | 0 mm | - | - | - |
| 1777642021 | 33.33° C | 14% | 5020.1 hPa | 0 mm | - | - | - |
| 1777641726 | 32.78° C | 14% | 5020.2 hPa | 0 mm | - | - | - |
| 1777641721 | 32.78° C | 14% | 5020.2 hPa | 0 mm | - | - | - |
| 1777641421 | 32.78° C | 13% | 5020 hPa | 0 mm | - | - | - |
| 1777641122 | 32.22° C | 14% | 5020.1 hPa | 0 mm | - | - | - |
| 1777640826 | 32.22° C | 14% | 5020.2 hPa | 0 mm | - | - | - |
| 1777640821 | 32.22° C | 14% | 5020.2 hPa | 0 mm | - | - | - |
| 1777640521 | 31.11° C | 14% | 5020.4 hPa | 0 mm | - | - | - |
| 1777640221 | 30.56° C | 15% | 5020.4 hPa | 0 mm | - | - | - |
| 1777639922 | 30° C | 15% | 5020.4 hPa | 0 mm | - | - | - |
| 1777639622 | 29.44° C | 15% | 5020.4 hPa | 0 mm | - | - | - |
| 1777639322 | 28.89° C | 16% | 5020.5 hPa | 0 mm | - | - | - |
| 1777639022 | 28.89° C | 16% | 5020.5 hPa | 0 mm | - | - | - |
| 1777638722 | 28.33° C | 16% | 5020.6 hPa | 0 mm | - | - | - |
| 1777638422 | 28.33° C | 17% | 5020.5 hPa | 0 mm | - | - | - |
| 1777638122 | 27.78° C | 17% | 5020.6 hPa | 0 mm | - | - | - |
| 1777637822 | 26.67° C | 18% | 5020.6 hPa | 0 mm | - | - | - |
| 1777637522 | 26.67° C | 19% | 5020.6 hPa | 0 mm | - | - | - |
| 1777637222 | 26.11° C | 19% | 5020.8 hPa | 0 mm | - | - | - |
| 1777636922 | 25.56° C | 20% | 5020.8 hPa | 0 mm | - | - | - |
| 1777636622 | 25° C | 20% | 5020.6 hPa | 0 mm | - | - | - |
| 1777636326 | 25° C | 21% | 5020.9 hPa | 0 mm | - | - | - |
| 1777636322 | 25° C | 21% | 5020.9 hPa | 0 mm | - | - | - |
* Rain latest hour (hover to see other rain measurements)
** Current wind speed in m/s (hover to see current wind gust speed)